VK4CWL-13 Weather Reports


Display with metric or nautical units.
time (UTC)temp
F
wind
direction
speed
MPH
gust
MPH
rain 1hr
in
rain 24hr
in
rain mn
in
humidity
%
barometer
mb
20260510205240 57 146 0.0 6.0 0.00 0.00 0.00 94 1025.7
20260510204739 57 157 0.0 7.0 0.00 0.00 0.00 94 1025.5
20260510204235 57 168 6.0 7.0 0.00 0.00 0.00 93 1025.5
20260510203733 57 225 4.0 7.0 0.00 0.00 0.00 93 1025.5
20260510203231 58 135 6.0 6.0 0.00 0.00 0.00 93 1025.5
20260510202729 58 157 4.0 7.0 0.00 0.00 0.00 93 1025.3
20260510202227 58 157 6.0 7.0 0.00 0.00 0.00 92 1025.2
20260510201724 58 135 7.0 7.0 0.00 0.00 0.00 92 1025.1
20260510201221 58 157 5.0 6.0 0.00 0.00 0.00 92 1025.2
20260510200719 58 135 5.0 7.0 0.00 0.00 0.00 92 1025.1
20260510200217 58 146 5.0 6.0 0.00 0.00 0.00 92 1025.0
20260510195715 58 135 5.0 7.0 0.00 0.00 0.00 92 1025.1
20260510195212 58 157 4.0 7.0 0.00 0.00 0.00 92 1025.0
20260510194710 58 135 5.0 7.0 0.00 0.00 0.00 93 1025.1
20260510194208 58 180 5.0 7.0 0.00 0.00 0.00 93 1025.0
20260510193706 58 180 6.0 8.0 0.00 0.00 0.00 92 1025.0
20260510193204 58 180 5.0 7.0 0.00 0.00 0.00 92 1024.9
20260510192701 58 180 6.0 7.0 0.00 0.00 0.00 92 1024.7
20260510192158 57 168 7.0 7.0 0.00 0.00 0.00 92 1024.5
20260510191656 57 168 5.0 6.0 0.00 0.00 0.00 92 1024.5
20260510191154 57 157 4.0 5.0 0.00 0.00 0.00 92 1024.4
20260510190652 57 168 5.0 6.0 0.00 0.00 0.00 92 1024.3
20260510190152 57 157 6.0 6.0 0.00 0.00 0.00 92 1024.3
20260510185647 57 157 6.0 6.0 0.00 0.00 0.00 92 1024.2
20260510185147 57 146 4.0 5.0 0.00 0.00 0.00 91 1024.3
20260510184643 57 146 3.0 5.0 0.00 0.00 0.00 91 1024.1
20260510184142 57 168 3.0 4.0 0.00 0.00 0.00 91 1024.0
20260510183638 57 157 3.0 5.0 0.00 0.00 0.00 91 1023.8
20260510183135 57 180 3.0 5.0 0.00 0.00 0.00 91 1024.0
20260510182633 57 135 5.0 5.0 0.00 0.00 0.00 91 1023.9
20260510182131 57 157 4.0 6.0 0.00 0.00 0.00 90 1023.7
20260510181629 57 135 6.0 6.0 0.00 0.00 0.00 90 1023.8
20260510181127 57 135 6.0 7.0 0.00 0.00 0.00 90 1023.7
20260510180624 57 135 6.0 7.0 0.00 0.00 0.00 89 1023.7
20260510180122 57 135 4.0 6.0 0.00 0.00 0.00 89 1023.8
20260510175620 57 135 5.0 5.0 0.00 0.00 0.00 89 1023.9
20260510175118 57 180 5.0 5.0 0.00 0.00 0.00 88 1024.0
20260510174615 57 168 4.0 5.0 0.00 0.00 0.00 88 1024.1
20260510174114 58 157 3.0 4.0 0.00 0.00 0.00 88 1024.2
20260510173610 58 157 4.0 5.0 0.00 0.00 0.00 88 1024.1
20260510173109 58 135 4.0 5.0 0.00 0.00 0.00 88 1023.8
20260510172104 58 180 4.0 5.0 0.00 0.00 0.00 87 1023.9
20260510171602 58 135 3.0 5.0 0.00 0.00 0.00 86 1023.9
20260510171059 58 168 4.0 5.0 0.00 0.00 0.00 86 1023.9
20260510170557 58 168 3.0 4.0 0.00 0.00 0.00 86 1023.8
20260510170057 58 180 5.0 5.0 0.00 0.00 0.00 85 1023.9
20260510165552 58 157 5.0 6.0 0.00 0.00 0.00 85 1023.9
20260510165050 58 135 5.0 6.0 0.00 0.00 0.00 85 1023.9
20260510164547 58 180 4.0 6.0 0.00 0.00 0.00 85 1023.9
20260510164045 59 168 4.0 6.0 0.00 0.00 0.00 84 1023.9
20260510163543 59 168 4.0 6.0 0.00 0.00 0.00 84 1023.8
20260510163041 59 157 5.0 6.0 0.00 0.00 0.00 84 1023.9
20260510162539 59 146 6.0 6.0 0.00 0.00 0.00 84 1024.0
20260510162036 59 146 5.0 7.0 0.00 0.00 0.00 84 1024.0
20260510161534 59 180 6.0 7.0 0.00 0.00 0.00 83 1023.9
20260510161032 59 157 5.0 7.0 0.00 0.00 0.00 83 1024.0
20260510160529 59 180 5.0 8.0 0.00 0.00 0.00 84 1024.1
20260510160027 59 146 7.0 9.0 0.00 0.00 0.00 84 1024.2
20260510155525 59 157 9.0 9.0 0.00 0.00 0.00 84 1024.3
20260510155022 59 135 7.0 7.0 0.00 0.00 0.00 84 1024.3
20260510154520 59 180 5.0 6.0 0.00 0.00 0.00 83 1024.2
20260510154018 58 180 5.0 6.0 0.00 0.00 0.00 83 1024.2
20260510153516 58 180 4.0 4.0 0.00 0.00 0.00 82 1024.4
20260510153016 58 168 4.0 5.0 0.00 0.00 0.00 82 1024.3
20260510152511 58 157 3.0 4.0 0.00 0.00 0.00 82 1024.5
20260510152009 58 202 3.0 4.0 0.00 0.00 0.00 82 1024.4
20260510151506 58 180 2.0 3.0 0.00 0.00 0.00 81 1024.4
20260510151004 58 135 4.0 4.0 0.00 0.00 0.00 81 1024.3
20260510150502 58 180 3.0 5.0 0.00 0.00 0.00 80 1024.2
20260510145959 58 191 4.0 5.0 0.00 0.00 0.00 80 1024.3
20260510145457 59 157 3.0 5.0 0.00 0.00 0.00 80 1024.2
20260510144955 59 180 4.0 5.0 0.00 0.00 0.00 81 1024.2
20260510144453 59 180 3.0 5.0 0.00 0.00 0.00 80 1024.1
20260510143951 59 180 4.0 5.0 0.00 0.00 0.00 81 1024.1
20260510143448 59 157 4.0 5.0 0.00 0.00 0.00 80 1024.0
20260510142946 59 180 4.0 4.0 0.00 0.00 0.00 80 1024.1
20260510142445 59 180 3.0 4.0 0.00 0.00 0.00 79 1024.2
20260510141941 60 180 3.0 3.0 0.00 0.00 0.00 79 1024.2
20260510141439 60 180 2.0 4.0 0.00 0.00 0.00 79 1024.2
20260510140937 60 180 4.0 5.0 0.00 0.00 0.00 79 1024.2
20260510140434 60 157 5.0 6.0 0.00 0.00 0.00 79 1024.2
20260510135932 60 168 5.0 5.0 0.00 0.00 0.00 78 1024.3
20260510135430 60 157 4.0 5.0 0.00 0.00 0.00 78 1024.4
20260510134928 60 168 5.0 5.0 0.00 0.00 0.00 78 1024.5
20260510134426 60 180 4.0 5.0 0.00 0.00 0.00 78 1024.6
20260510133923 60 180 5.0 7.0 0.00 0.00 0.00 78 1024.6
20260510133421 61 135 6.0 7.0 0.00 0.00 0.00 77 1024.6
20260510132918 61 180 5.0 6.0 0.00 0.00 0.00 77 1024.6
20260510132416 61 135 5.0 6.0 0.00 0.00 0.00 76 1024.6
20260510131914 61 180 4.0 6.0 0.00 0.00 0.00 77 1024.6
20260510131411 61 157 4.0 4.0 0.00 0.00 0.00 76 1024.8
20260510130909 61 168 4.0 5.0 0.00 0.00 0.00 76 1024.7
20260510130407 61 180 4.0 5.0 0.00 0.00 0.00 75 1024.7
20260510125905 62 180 4.0 4.0 0.00 0.00 0.00 75 1024.8
20260510125403 62 157 3.0 4.0 0.00 0.00 0.00 74 1024.8
20260510124900 62 180 3.0 4.0 0.00 0.00 0.00 74 1024.8
20260510124358 62 180 3.0 4.0 0.00 0.00 0.00 73 1024.8
20260510123855 62 168 4.0 4.0 0.00 0.00 0.00 73 1024.7
20260510123353 62 157 3.0 4.0 0.00 0.00 0.00 73 1024.6
20260510122851 63 157 4.0 4.0 0.00 0.00 0.00 73 1024.7
20260510122348 63 146 4.0 4.0 0.00 0.00 0.00 73 1024.7
20260510121846 63 157 4.0 5.0 0.00 0.00 0.00 73 1024.6
20260510121344 63 135 4.0 4.0 0.00 0.00 0.00 72 1024.6
20260510120842 63 157 3.0 3.0 0.00 0.00 0.00 72 1024.6
20260510120340 63 135 2.0 3.0 0.00 0.00 0.00 72 1024.7
20260510115837 63 135 2.0 4.0 0.00 0.00 0.00 72 1024.7
20260510115358 63 146 3.0 5.0 0.00 0.00 0.00 71 1024.7
20260510114832 63 135 4.0 4.0 0.00 0.00 0.00 71 1024.7
20260510114330 63 135 3.0 4.0 0.00 0.00 0.00 71 1024.8
20260510113828 64 135 4.0 5.0 0.00 0.00 0.00 71 1024.7
20260510113326 64 135 4.0 5.0 0.00 0.00 0.00 71 1024.8
20260510112823 64 135 3.0 4.0 0.00 0.00 0.00 71 1024.9
20260510112321 64 135 4.0 5.0 0.00 0.00 0.00 71 1025.0
20260510111819 64 135 4.0 6.0 0.00 0.00 0.00 71 1025.1
20260510111317 64 135 4.0 6.0 0.00 0.00 0.00 72 1025.0
20260510110815 64 135 4.0 5.0 0.00 0.00 0.00 71 1024.9
20260510110312 63 135 5.0 6.0 0.00 0.00 0.00 71 1025.0
20260510105809 63 135 5.0 6.0 0.00 0.00 0.00 71 1024.9
20260510105309 63 135 5.0 6.0 0.00 0.00 0.00 71 1024.9
20260510104805 63 135 5.0 5.0 0.00 0.00 0.00 70 1024.9
20260510104303 63 135 6.0 6.0 0.00 0.00 0.00 70 1024.8
20260510103800 63 135 5.0 5.0 0.00 0.00 0.00 70 1025.1
20260510103258 63 157 5.0 6.0 0.00 0.00 0.00 70 1025.0
20260510102756 63 135 5.0 7.0 0.00 0.00 0.00 69 1025.1
20260510102254 63 135 5.0 5.0 0.00 0.00 0.00 69 1024.9
20260510101752 63 157 4.0 5.0 0.00 0.00 0.00 69 1024.9
20260510101249 63 180 3.0 4.0 0.00 0.00 0.00 69 1024.9
20260510100746 63 180 3.0 4.0 0.00 0.00 0.00 69 1025.0
20260510100244 63 180 3.0 3.0 0.00 0.00 0.00 68 1024.9
20260510095742 64 168 3.0 4.0 0.00 0.00 0.00 68 1024.7
20260510095240 64 180 3.0 4.0 0.00 0.00 0.00 67 1024.6
20260510094235 64 157 3.0 5.0 0.00 0.00 0.00 67 1024.3
20260510093733 64 135 4.0 5.0 0.00 0.00 0.00 66 1024.3
20260510093232 65 157 4.0 5.0 0.00 0.00 0.00 66 1024.2
20260510092729 65 135 4.0 5.0 0.00 0.00 0.00 65 1024.0
20260510092226 65 157 4.0 6.0 0.00 0.00 0.00 65 1024.1
20260510091723 65 180 5.0 5.0 0.00 0.00 0.00 65 1024.0
20260510091221 66 180 3.0 5.0 0.00 0.00 0.00 64 1023.9
20260510090719 66 157 4.0 5.0 0.00 0.00 0.00 64 1023.8
20260510090217 66 146 5.0 5.0 0.00 0.00 0.00 64 1023.6
20260510085715 66 180 4.0 5.0 0.00 0.00 0.00 64 1023.6
20260510085212 67 135 4.0 5.0 0.00 0.00 0.00 63 1023.5
20260510084710 67 135 4.0 4.0 0.00 0.00 0.00 63 1023.5
20260510084210 67 135 3.0 5.0 0.00 0.00 0.00 62 1023.6
20260510083706 67 135 5.0 5.0 0.00 0.00 0.00 62 1023.3
20260510083203 68 135 4.0 5.0 0.00 0.00 0.00 62 1023.4
20260510082700 68 135 4.0 5.0 0.00 0.00 0.00 62 1023.3
20260510082158 68 135 3.0 4.0 0.00 0.00 0.00 61 1023.3
20260510081656 68 180 3.0 5.0 0.00 0.00 0.00 61 1023.0
20260510081154 69 135 5.0 5.0 0.00 0.00 0.00 61 1023.0
20260510080652 69 135 4.0 6.0 0.00 0.00 0.00 60 1023.1
20260510075647 70 135 3.0 4.0 0.00 0.00 0.00 60 1022.9
20260510075145 70 112 3.0 4.0 0.00 0.00 0.00 60 1023.0
20260510074643 70 90 4.0 4.0 0.00 0.00 0.00 60 1023.0
20260510074140 70 90 3.0 4.0 0.00 0.00 0.00 59 1023.0
20260510073638 70 135 4.0 5.0 0.00 0.00 0.00 59 1023.0
20260510073135 71 112 4.0 5.0 0.00 0.00 0.00 59 1022.9
20260510072633 71 112 6.0 6.0 0.00 0.00 0.00 58 1022.9
20260510072131 71 90 3.0 4.0 0.00 0.00 0.00 58 1022.8
20260510071629 71 90 4.0 4.0 0.00 0.00 0.00 58 1022.9
20260510071127 72 112 3.0 4.0 0.00 0.00 0.00 58 1023.0
20260510070627 72 101 4.0 6.0 0.00 0.00 0.00 57 1022.9
20260510070122 72 135 3.0 6.0 0.00 0.00 0.00 57 1022.9
20260510065620 72 90 3.0 6.0 0.00 0.00 0.00 57 1023.0
20260510065117 72 112 5.0 8.0 0.00 0.00 0.00 57 1022.8
20260510064616 72 90 6.0 8.0 0.00 0.00 0.00 56 1022.7
20260510064113 72 90 6.0 8.0 0.00 0.00 0.00 56 1022.8
20260510063610 72 90 5.0 9.0 0.00 0.00 0.00 56 1022.7
20260510063108 72 90 6.0 9.0 0.00 0.00 0.00 56 1022.6
20260510062607 73 90 6.0 7.0 0.00 0.00 0.00 56 1022.6
20260510062104 73 135 4.0 7.0 0.00 0.00 0.00 56 1022.6
20260510061602 73 135 8.0 10.0 0.00 0.00 0.00 56 1022.6
20260510061059 73 135 4.0 9.0 0.00 0.00 0.00 56 1022.6
20260510060557 73 112 6.0 10.0 0.00 0.00 0.00 56 1022.6
20260510060054 73 247 4.0 5.0 0.00 0.00 0.00 56 1022.7
20260510055552 73 90 8.0 8.0 0.00 0.00 0.00 56 1022.6
20260510055050 73 90 7.0 7.0 0.00 0.00 0.00 56 1022.7
20260510054547 73 45 4.0 5.0 0.00 0.00 0.00 56 1022.7
20260510054045 73 45 5.0 7.0 0.00 0.00 0.00 56 1022.7
20260510053543 73 112 9.0 9.0 0.00 0.00 0.00 56 1022.7
20260510053041 73 90 9.0 13.0 0.00 0.00 0.00 56 1022.5
20260510052539 73 135 9.0 10.0 0.00 0.00 0.00 56 1022.5
20260510052036 73 90 7.0 9.0 0.00 0.00 0.00 57 1022.4
20260510051032 73 90 7.0 10.0 0.00 0.00 0.00 58 1022.4
20260510050530 73 56 6.0 10.0 0.00 0.00 0.00 58 1022.2
20260510050027 73 90 10.0 11.0 0.00 0.00 0.00 58 1022.1
20260510045526 73 90 9.0 9.0 0.00 0.00 0.00 58 1022.1
20260510045022 73 90 8.0 13.0 0.00 0.00 0.00 59 1022.1
20260510044520 73 90 6.0 8.0 0.00 0.00 0.00 58 1022.1
20260510044018 73 135 7.0 10.0 0.00 0.00 0.00 58 1022.3
20260510043516 73 90 6.0 9.0 0.00 0.00 0.00 58 1022.2
20260510043014 73 90 7.0 8.0 0.00 0.00 0.00 58 1022.2
20260510042511 72 90 5.0 7.0 0.00 0.00 0.00 58 1022.2
20260510042009 72 135 5.0 6.0 0.00 0.00 0.00 57 1022.4
20260510041506 72 90 2.0 7.0 0.00 0.00 0.00 57 1022.3
20260510041004 73 90 6.0 7.0 0.00 0.00 0.00 57 1022.4
20260510040502 73 168 4.0 6.0 0.00 0.00 0.00 56 1022.4
20260510035959 73 135 6.0 9.0 0.00 0.00 0.00 56 1022.5
20260510035457 73 112 5.0 7.0 0.00 0.00 0.00 56 1022.6
20260510034955 73 135 6.0 9.0 0.00 0.00 0.00 56 1022.9
20260510034453 73 180 5.0 10.0 0.00 0.00 0.00 57 1022.8
20260510033951 72 146 6.0 8.0 0.00 0.00 0.00 57 1022.8
20260510033449 72 135 7.0 8.0 0.00 0.00 0.00 57 1022.9
20260510032946 72 135 5.0 7.0 0.00 0.00 0.00 58 1023.0
20260510032443 72 157 10.0 10.0 0.00 0.00 0.00 58 1023.0
20260510031941 72 135 3.0 7.0 0.00 0.00 0.00 58 1023.0
20260510031439 72 135 9.0 9.0 0.00 0.00 0.00 58 1023.1
20260510030937 71 180 5.0 9.0 0.00 0.00 0.00 58 1023.0
20260510030434 71 146 5.0 9.0 0.00 0.00 0.00 59 1023.1
20260510025932 71 135 8.0 8.0 0.00 0.00 0.00 58 1023.1
20260510025445 71 135 6.0 10.0 0.00 0.00 0.00 59 1023.3
20260510024928 71 135 6.0 7.0 0.00 0.00 0.00 59 1023.3
20260510024426 70 180 8.0 8.0 0.00 0.00 0.00 59 1023.4
20260510024123 70 168 0.0 7.0 0.00 0.00 0.00 59 1023.3
20260510023620 70 135 6.0 8.0 0.00 0.00 0.00 59 1023.2
20260510023118 70 135 6.0 9.0 0.00 0.00 0.00 59 1023.2
20260510022616 70 112 7.0 10.0 0.00 0.00 0.00 60 1023.2
20260510022114 70 135 8.0 8.0 0.00 0.00 0.00 60 1023.2
20260510021612 70 146 7.0 9.0 0.00 0.00 0.00 60 1023.3
20260510021109 70 101 6.0 9.0 0.00 0.00 0.00 60 1023.3
20260510020607 69 135 5.0 10.0 0.00 0.00 0.00 60 1023.4
20260510020105 69 135 10.0 10.0 0.00 0.00 0.00 60 1023.6
20260510015603 69 135 7.0 9.0 0.00 0.00 0.00 60 1023.6
20260510015100 69 135 6.0 10.0 0.00 0.00 0.00 60 1023.8
20260510014559 69 135 10.0 10.0 0.00 0.00 0.00 60 1023.9
20260510014055 69 135 8.0 8.0 0.00 0.00 0.00 61 1023.8
20260510013553 69 112 9.0 10.0 0.00 0.00 0.00 60 1023.9
20260510013051 68 135 7.0 11.0 0.00 0.00 0.00 60 1024.0
20260510012550 68 135 12.0 12.0 0.00 0.00 0.00 60 1024.0
20260510012437 68 146 1.0 12.0 0.00 0.00 0.00 60 1024.0
20260510012024 68 157 10.0 11.0 0.00 0.00 0.00 60 1024.0
20260510011522 68 135 10.0 11.0 0.00 0.00 0.00 60 1024.3
20260510011020 68 90 10.0 10.0 0.00 0.00 0.00 60 1024.5
20260510010517 68 135 9.0 9.0 0.00 0.00 0.00 61 1024.6
20260510005512 67 135 7.0 11.0 0.00 0.00 0.00 62 1024.8
20260510005012 67 135 7.0 10.0 0.00 0.00 0.00 62 1025.0
20260510004508 67 135 7.0 10.0 0.00 0.00 0.00 62 1025.1
20260510004006 67 135 5.0 10.0 0.00 0.00 0.00 63 1025.2
20260510003504 67 135 7.0 12.0 0.00 0.00 0.00 63 1025.1
20260510003003 66 157 10.0 11.0 0.00 0.00 0.00 63 1025.1
20260510002501 66 157 6.0 10.0 0.00 0.00 0.00 63 1025.0
20260510001957 66 135 10.0 10.0 0.00 0.00 0.00 63 1025.0
20260510001454 66 157 10.0 11.0 0.00 0.00 0.00 63 1025.1
20260510000952 66 135 8.0 9.0 0.00 0.00 0.00 64 1025.4
20260510000450 65 135 10.0 10.0 0.00 0.00 0.00 64 1025.3
20260509235947 65 135 6.0 10.0 0.00 0.00 0.00 64 1025.4
20260509234944 65 157 9.0 10.0 0.00 0.00 0.00 64 1025.2
20260509233938 65 135 11.0 12.0 0.00 0.00 0.00 64 1025.1
20260509233433 65 135 8.0 11.0 0.00 0.00 0.00 64 1025.2
20260509232931 64 135 10.0 12.0 0.00 0.00 0.00 64 1025.0
20260509232429 64 135 10.0 11.0 0.00 0.00 0.00 64 1024.9
20260509231926 64 135 10.0 11.0 0.00 0.00 0.00 64 1024.9
20260509231424 64 135 8.0 11.0 0.00 0.00 0.00 64 1024.9
20260509230921 64 135 8.0 12.0 0.00 0.00 0.00 64 1024.9
20260509230419 63 135 10.0 10.0 0.00 0.00 0.00 65 1024.9
20260509225917 63 135 11.0 11.0 0.00 0.00 0.00 64 1024.8
20260509225415 63 135 11.0 11.0 0.00 0.00 0.00 64 1024.7
20260509224913 63 135 9.0 12.0 0.00 0.00 0.00 64 1024.6
20260509224411 62 135 8.0 13.0 0.00 0.00 0.00 64 1024.5
20260509223908 62 135 8.0 10.0 0.00 0.00 0.00 64 1024.3
20260509223406 62 168 8.0 11.0 0.00 0.00 0.00 64 1024.5
20260509222903 61 135 8.0 11.0 0.00 0.00 0.00 64 1024.3
20260509222401 61 146 10.0 12.0 0.00 0.00 0.00 65 1024.3
20260509221859 60 135 6.0 11.0 0.00 0.00 0.00 64 1024.1
20260509220851 60 135 10.0 12.0 0.00 0.00 0.00 65 1023.9
20260509220349 60 135 7.0 11.0 0.00 0.00 0.00 65 1024.0
20260509215847 60 157 7.0 11.0 0.00 0.00 0.00 65 1024.1
20260509215345 59 135 9.0 12.0 0.00 0.00 0.00 65 1023.9
20260509214842 59 135 7.0 10.0 0.00 0.00 0.00 66 1024.1
20260509214340 59 146 8.0 8.0 0.00 0.00 0.00 66 1024.2
20260509213837 59 157 6.0 9.0 0.00 0.00 0.00 66 1024.2
20260509213335 58 157 7.0 8.0 0.00 0.00 0.00 67 1024.1
20260509212833 58 146 6.0 8.0 0.00 0.00 0.00 67 1024.1
20260509212331 58 180 6.0 9.0 0.00 0.00 0.00 68 1023.9
20260509211828 58 135 7.0 9.0 0.00 0.00 0.00 69 1023.8
20260509211326 57 146 6.0 8.0 0.00 0.00 0.00 69 1023.7
20260509210824 57 135 7.0 7.0 0.00 0.00 0.00 69 1023.6
20260509210322 57 135 5.0 7.0 0.00 0.00 0.00 70 1023.4
20260509205819 57 168 4.0 7.0 0.00 0.00 0.00 69 1023.6
20260509205317 57 180 4.0 6.0 0.00 0.00 0.00 69 1023.6